Retour au catalogue

DELTA 1 DEB

ActifPO
NORAD 21598·DEBRIS·🇺🇸 United States

Lancé Jun 12, 1975 depuis Vandenberg Space Force Base

Loading…

Prochains Passages (prochaines 24 heures)

TLE

FraisSource: Space-Track

Époque: Sep 14, 2026, 09:22 UTC

1 21598U 75052HS  26257.39090906  .00000102  00000-0  44584-3 0  9993
2 21598  99.5726 231.8043 0349422 272.6743 247.1116 12.84376076655452

Suivez DELTA 1 DEB en temps réel avec AllMySat

Download on the App Store